Back to catalog

DELTA 1 DEB

AlivePO
NORAD 27726·DEBRIS·🇺🇸 United States

Launched Jan 22, 1975 from Vandenberg Space Force Base

Loading…

Next Passes (next 24 hours)

TLE

FreshSource: Space-Track

Epoch: Sep 14, 2026, 08:39 UTC

1 27726U 75004HS  26257.36106606  .00000103  00000-0  56547-4 0  9995
2 27726  97.7915 230.6820 0105617 229.3879 129.8080 14.24950798348254

Track DELTA 1 DEB in real time with AllMySat

Download on the App Store